{"data":{"norad_id":63062,"intl_designator":"2025-035L","name":"STARLINK-11412 [DTC]","alt_names":[],"object_type":"PAYLOAD","status":"ACTIVE","operator":null,"country":"US","launch_date":"2025-02-21","launch_site_code":"AFETR","launch_vehicle":null,"mission":null,"orbit_class":"UNKNOWN","rcs_meters":null,"size_class":null,"mass_kg":null,"dimensions":null,"purposes":["comms"],"wikipedia_slug":null,"has_3d_model":false,"image_url":null,"decayed_at":null,"tle_current":{"epoch":"2026-05-24T19:36:39.156768Z","epoch_age_seconds":94121,"freshness":"FRESH","line1":"1 63062U 25035L   26144.81711987  .00178654  00000+0  13641-2 0  9998","line2":"2 63062  42.9978 276.4754 0002088 246.4499 113.6150 15.70874537 73193","mean_motion":15.70874537,"eccentricity":0.0002088,"inclination_deg":42.9978,"raan_deg":276.4754,"arg_perigee_deg":246.4499,"mean_anomaly_deg":113.615,"bstar":0.0013641,"rev_number":7319,"period_min":91.668683022265,"perigee_km":354.99017960392,"apogee_km":357.80252073095,"semimajor_km":6734.5333501674,"source":"CELESTRAK","updated_at":"2026-05-25T13:38:19.873278Z"}}}